BAW51B KBOS-EGLL

Flight info

Callsign BAW51B
Flight time N/A
Altitude 35000
Route CELTK7 CELTK DCT FRILL DCT TUSKY N355C JOOPY/M083F370 DCT 49N050W 51N040W 53N030W 54N020W DCT DOGAL DCT BEXET/N0472F390 DCT DEVOL DCT RINUS DCT LIFFY UL975 MALUD Q38 NUGRA
Aircraft B77W/H-SDE1E3FGHIJ3J4J5J6M1M2P2RWXYZ/LB1D1

Departure

Time N/A
Airport Boston Logan International Airport (KBOS)

Arrival

Time 2026-05-03 20:39
Airport London Heathrow Airport (EGLL)
Time Latitude Longitude Altitude Speed Heading
2026-05-03 20:15 52.69974 -1.95945 30286 ft 431 kts 151°
2026-05-03 20:15 52.67442 -1.93328 29737 ft 426 kts 151°
2026-05-03 20:15 52.64964 -1.90771 29139 ft 422 kts 151°
2026-05-03 20:15 52.62489 -1.88221 28624 ft 417 kts 151°
2026-05-03 20:16 52.60042 -1.85703 28082 ft 412 kts 151°
2026-05-03 20:16 52.57621 -1.83215 27570 ft 408 kts 151°
2026-05-03 20:16 52.55221 -1.80752 27046 ft 405 kts 151°
2026-05-03 20:16 52.52842 -1.78314 26540 ft 402 kts 150°
2026-05-03 20:17 52.50479 -1.75894 26034 ft 399 kts 150°
2026-05-03 20:17 52.48134 -1.73497 25559 ft 396 kts 150°
2026-05-03 20:17 52.45801 -1.71116 25050 ft 393 kts 150°
2026-05-03 20:17 52.43482 -1.68750 24572 ft 391 kts 150°
2026-05-03 20:18 52.41181 -1.66406 24094 ft 390 kts 150°
2026-05-03 20:18 52.38878 -1.64063 23621 ft 388 kts 150°
2026-05-03 20:18 52.36593 -1.61741 23074 ft 387 kts 150°
2026-05-03 20:18 52.34308 -1.59422 22551 ft 384 kts 150°
2026-05-03 20:19 52.32049 -1.57131 22059 ft 381 kts 150°
2026-05-03 20:19 52.29799 -1.54853 21583 ft 379 kts 150°
2026-05-03 20:19 52.27563 -1.52590 21101 ft 376 kts 150°
2026-05-03 20:19 52.25341 -1.50344 20638 ft 374 kts 150°
2026-05-03 20:20 52.23139 -1.48124 20183 ft 372 kts 150°
2026-05-03 20:20 52.20982 -1.45869 19927 ft 364 kts 147°
2026-05-03 20:20 52.18994 -1.43285 19925 ft 367 kts 142°
2026-05-03 20:20 52.17070 -1.40527 19916 ft 367 kts 141°
2026-05-03 20:21 52.15181 -1.37772 19681 ft 360 kts 141°
2026-05-03 20:21 52.13335 -1.35102 19019 ft 349 kts 141°
2026-05-03 20:21 52.11509 -1.32504 18146 ft 349 kts 141°
2026-05-03 20:21 52.09682 -1.29936 17540 ft 350 kts 142°
2026-05-03 20:22 52.07816 -1.27331 17171 ft 348 kts 142°
2026-05-03 20:22 52.05976 -1.24772 16813 ft 349 kts 142°
2026-05-03 20:22 52.04151 -1.22241 16467 ft 350 kts 142°
2026-05-03 20:22 52.02301 -1.19677 16080 ft 350 kts 142°
2026-05-03 20:23 52.00449 -1.17115 15743 ft 349 kts 142°
2026-05-03 20:23 51.98607 -1.14568 15391 ft 348 kts 142°
2026-05-03 20:23 51.96763 -1.12023 15027 ft 347 kts 142°
2026-05-03 20:23 51.94943 -1.09501 14807 ft 342 kts 141°
2026-05-03 20:24 51.93154 -1.06948 14551 ft 337 kts 141°
2026-05-03 20:24 51.91429 -1.04460 14378 ft 328 kts 141°
2026-05-03 20:24 51.89743 -1.02020 14122 ft 322 kts 140°
2026-05-03 20:24 51.88087 -0.99619 13875 ft 316 kts 140°
2026-05-03 20:25 51.86465 -0.97267 13611 ft 311 kts 140°
2026-05-03 20:25 51.84876 -0.94951 13330 ft 305 kts 141°
2026-05-03 20:25 51.83311 -0.92662 13069 ft 301 kts 140°
2026-05-03 20:25 51.81766 -0.90401 12796 ft 298 kts 140°
2026-05-03 20:26 51.80419 -0.87908 12471 ft 297 kts 122°
2026-05-03 20:26 51.79552 -0.84854 12135 ft 302 kts 113°
2026-05-03 20:26 51.78829 -0.81639 11708 ft 307 kts 111°
2026-05-03 20:26 51.78115 -0.78371 11214 ft 310 kts 112°
2026-05-03 20:27 51.77378 -0.75076 10732 ft 313 kts 112°
2026-05-03 20:27 51.76621 -0.71777 10246 ft 311 kts 112°
2026-05-03 20:27 51.75869 -0.68565 9737 ft 301 kts 112°
2026-05-03 20:27 51.75133 -0.65457 9198 ft 292 kts 112°
2026-05-03 20:28 51.74411 -0.62437 8655 ft 285 kts 112°
2026-05-03 20:28 51.73705 -0.59496 8149 ft 278 kts 112°
2026-05-03 20:28 51.73013 -0.56620 7679 ft 273 kts 112°
2026-05-03 20:28 51.72246 -0.53840 7323 ft 269 kts 122°
2026-05-03 20:29 51.71188 -0.51369 7041 ft 267 kts 128°
2026-05-03 20:29 51.70061 -0.48992 6747 ft 265 kts 128°
2026-05-03 20:29 51.68944 -0.46632 6455 ft 264 kts 128°
2026-05-03 20:29 51.67849 -0.44286 6195 ft 261 kts 127°
2026-05-03 20:30 51.66775 -0.41953 5965 ft 257 kts 127°
2026-05-03 20:30 51.65738 -0.39678 5700 ft 253 kts 127°
2026-05-03 20:30 51.64713 -0.37416 5494 ft 246 kts 127°
2026-05-03 20:30 51.63717 -0.35218 5339 ft 239 kts 127°
2026-05-03 20:31 51.62753 -0.33088 5168 ft 232 kts 127°
2026-05-03 20:31 51.61819 -0.31027 5006 ft 224 kts 127°
2026-05-03 20:31 51.60903 -0.29038 4825 ft 218 kts 127°
2026-05-03 20:31 51.60001 -0.27093 4639 ft 218 kts 127°
2026-05-03 20:32 51.59085 -0.25121 4504 ft 222 kts 127°
2026-05-03 20:32 51.58157 -0.23123 4361 ft 224 kts 127°
2026-05-03 20:32 51.57231 -0.21109 4209 ft 224 kts 127°
2026-05-03 20:32 51.56309 -0.19093 4055 ft 224 kts 127°
2026-05-03 20:33 51.55387 -0.17077 3908 ft 224 kts 127°
2026-05-03 20:33 51.54465 -0.15065 3757 ft 223 kts 127°
2026-05-03 20:33 51.53504 -0.13134 3571 ft 219 kts 140°
2026-05-03 20:33 51.52158 -0.12173 3317 ft 212 kts 177°
2026-05-03 20:34 51.50768 -0.12627 3192 ft 201 kts 205°
2026-05-03 20:34 51.49584 -0.13841 3089 ft 204 kts 217°
2026-05-03 20:34 51.48500 -0.15323 3007 ft 205 kts 232°
2026-05-03 20:34 51.48010 -0.17354 2977 ft 191 kts 263°
2026-05-03 20:35 51.47891 -0.19449 2983 ft 187 kts 266°
2026-05-03 20:35 51.47840 -0.21540 2758 ft 186 kts 269°
2026-05-03 20:35 51.47827 -0.23567 2507 ft 178 kts 270°
2026-05-03 20:35 51.47821 -0.25462 2294 ft 163 kts 270°
2026-05-03 20:36 51.47816 -0.27249 2081 ft 160 kts 270°
2026-05-03 20:36 51.47811 -0.29037 1866 ft 159 kts 269°
2026-05-03 20:36 51.47805 -0.30749 1634 ft 148 kts 269°
2026-05-03 20:36 51.47800 -0.32324 1469 ft 142 kts 269°
2026-05-03 20:37 51.47794 -0.33899 1308 ft 141 kts 269°
2026-05-03 20:37 51.47788 -0.35469 1095 ft 139 kts 269°
2026-05-03 20:37 51.47787 -0.37038 880 ft 142 kts 269°
2026-05-03 20:37 51.47782 -0.38614 684 ft 141 kts 269°
2026-05-03 20:38 51.47779 -0.40184 520 ft 140 kts 268°
2026-05-03 20:38 51.47775 -0.41737 324 ft 138 kts 269°
2026-05-03 20:38 51.47771 -0.43264 149 ft 136 kts 268°
2026-05-03 20:38 51.47764 -0.44700 95 ft 114 kts 269°
2026-05-03 20:39 51.47762 -0.45459 90 ft 91 kts 269°
2026-05-03 20:39 51.47758 -0.46478 97 ft 45 kts 269°
2026-05-03 20:39 51.47757 -0.46892 96 ft 26 kts 269°
2026-05-03 20:39 51.47756 -0.47118 95 ft 19 kts 269°
2026-05-03 20:40 51.47755 -0.47258 93 ft 18 kts 269°
2026-05-03 20:40 51.47689 -0.47389 94 ft 12 kts 186°
2026-05-03 20:40 51.47640 -0.47390 94 ft 3 kts 179°
2026-05-03 20:40 51.47612 -0.47390 94 ft 7 kts 179°
2026-05-03 20:41 51.47605 -0.47388 94 ft 5 kts 170°
2026-05-03 20:41 51.47530 -0.47358 94 ft 12 kts 182°
2026-05-03 20:41 51.47492 -0.47465 92 ft 13 kts 268°
2026-05-03 20:41 51.47491 -0.47608 92 ft 13 kts 269°
2026-05-03 20:42 51.47490 -0.47751 91 ft 13 kts 270°
2026-05-03 20:42 51.47464 -0.47871 93 ft 11 kts 200°
2026-05-03 20:42 51.47386 -0.47872 94 ft 12 kts 180°
2026-05-03 20:42 51.47303 -0.47872 94 ft 12 kts 180°
2026-05-03 20:43 51.47217 -0.47871 91 ft 12 kts 179°
2026-05-03 20:43 51.47131 -0.47870 91 ft 12 kts 179°
2026-05-03 20:43 51.47044 -0.47869 91 ft 13 kts 180°
2026-05-03 20:43 51.46954 -0.47869 91 ft 12 kts 179°
2026-05-03 20:44 51.46891 -0.47868 91 ft 0 kts 179°
2026-05-03 20:44 51.46879 -0.47868 91 ft 3 kts 179°
2026-05-03 20:44 51.46857 -0.47884 92 ft 4 kts 224°
2026-05-03 20:44 51.46847 -0.47926 92 ft 4 kts 266°
2026-05-03 20:45 51.46847 -0.47976 94 ft 4 kts 270°
2026-05-03 20:45 51.46847 -0.48007 95 ft 1 kts 270°
2026-05-03 20:45 51.46847 -0.48019 95 ft 0 kts 270°